Regional Weather Roundup
Issued by NWS

Home | Current Version | Previous Version | Text Only | Print | Product List | Glossary On
Versions: 1 2 3 4 5 6 7 8 9 10 11 12 13 14 15 16 17 18 19 20 21 22 23 24 25 26 27 28 29 30 31 32 33 34 35 36 37 38 39 40 41 42 43 44 45 46 47 48 49 50
000
ASUS42 KTBW 201216
RWRFL
FLORIDA REGIONAL WEATHER ROUNDUP
NATIONAL WEATHER SERVICE TAMPA BAY RUSKIN FL
800 AM EDT MON MAY 20 2019

NOTE: "FAIR" INDICATES FEW OR NO CLOUDS BELOW 12,000 FEET WITH NO
SIGNIFICANT WEATHER AND/OR OBSTRUCTIONS TO VISIBILITY.

FLZ001>010-012>015-112-114-115-201300-
PANHANDLE FLORIDA

CITY           SKY/WX    TMP DP  RH WIND       PRES   REMARKS
PENSACOLA      FAIR      75  75 100 NE5       30.02R
PENSACOLA NAS  FAIR      74  74 100 CALM      30.02R
MILTON NAS     FAIR      70  70 100 CALM      30.03  FOG
CRESTVIEW      FAIR      67  65  93 CALM      30.05S
DUKE FIELD     FOG       67  67 100 CALM      30.04R VSB 1/8
VALPARAISO     FAIR      71  70  97 CALM      30.03R
MARY ESTHER    MOSUNNY   71  70  98 CALM      30.02R
PANAMA CITY    FOG       68  67  96 CALM      30.03R VSB 1/4
TYNDALL AFB    FAIR      73  72  96 E3        30.03S
APALACHICOLA   FAIR      72  69  90 CALM      30.04R

STATION/POSITION SKY/WX   TEMP    WIND        PRES    WAVE   SWELL
                          AIR SEA DIR/SP/G            HT/PER HT/PER
                          (F)     (DEG/KT/KT) (MB)    (FT/S) (FT/S)
30.1N   87.6W                                   N/A     2/ 7
29.2N   88.2W                     110/  2/  4 1016.7R
PANAMA CITY BEAC           75 80   70/  4/  5 1017.3R
TOWER C          NOT AVBL

$$
FLZ011-016>038-118-127-128-134-139-239-201300-
NORTH FLORIDA

CITY           SKY/WX    TMP DP  RH WIND       PRES   REMARKS
MARIANNA       CLOUDY    69  69 100 CALM      30.04R FOG
TALLAHASSEE    FOG       68  68 100 CALM      30.05R VSB 1/4
PERRY          FAIR      70  69  97 NW3       30.06R FOG
LIVE OAK       SUNNY     68  68 100 SE5       30.04S
CROSS CITY     FAIR      68  65  90 CALM      30.05S
GAINESVILLE    FAIR      75  70  84 CALM      30.08R
WILLISTON      FAIR      69  65  87 CALM      30.05S
PALATKA        FAIR     N/A N/A N/A CALM      30.06R
MAYPORT NAS    FAIR      75  72  90 SW8       30.05S
JACKSONVILLE   FAIR      74  72  93 S3        30.04S
JAX NAS        FAIR      77  69  76 S6        30.06R
JAX CECIL      SUNNY     73  70  88 CALM      30.06R
FERNANDINA BEA FAIR      76  73  90 SW7       30.05S
ST AUGUSTINE   FAIR      75  72  90 SW5       30.06S
PALM COAST     SUNNY     73  70  88 CALM      30.06R

STATION/POSITION SKY/WX   TEMP    WIND        PRES    WAVE   SWELL
                          AIR SEA DIR/SP/G            HT/PER HT/PER
                          (F)     (DEG/KT/KT) (MB)    (FT/S) (FT/S)
SHELL POINT      NOT AVBL
KEATON BEACH               74     120/  4/  4 1017.6R
CEDAR KEY                  76      70/  5/  6 1017.4R
FERNANDINA                 79 80  180/  3/  6 1018.2R
30.7N   81.3W                 78                N/A     2/ 5
MAYPORT                    75 80  220/  6/  8 1017.8R
31.4N   80.9W              77 76  170/  6/  8 1017.5R   3/ 6   2/ 6
ST AUGUSTINE               78 80  230/  6/  7 1018.0R

$$
FLZ040-043>046-052-053-057-058-063-144-201300-
INTERIOR CENTRAL FLORIDA

CITY           SKY/WX    TMP DP  RH WIND       PRES   REMARKS
OCALA          FAIR      72  68  87 CALM      30.06R
LEESBURG       FAIR      76  71  85 E3        30.06R
SANFORD        FAIR      75  71  87 CALM      30.05R
ORLANDO EXEC   FAIR      77  71  82 CALM      30.05R
ORLANDO INTL   FAIR      77  70  79 CALM      30.05R
KISSIMMEE      FAIR      76  71  85 CALM      30.06R
WINTER HAVEN   FAIR      76  72  87 NE3       30.06R
LAKELAND       SUNNY     75  70  83 CALM      30.05R
BARTOW         SUNNY     73  72  94 CALM      30.04R
SEBRING        FAIR      70  69  96 CALM      30.04R
OKEECHOBEE     FAIR      70  68  94 N3        30.03R

$$
FLZ041-047-054-059-064-141-147-201300-
EAST CENTRAL FLORIDA

CITY           SKY/WX    TMP DP  RH WIND       PRES   REMARKS
ORMOND BEACH   SUNNY     72  72 100 CALM      30.06R
DAYTONA BEACH  FAIR      75  74  96 CALM      30.06R
DELAND         FAIR      72  70  94 CALM      30.06R
NEW SMYRNA BEA SUNNY     75  72  88 VRB3      30.07
JFK SPACE CTR  FAIR      75  73  93 NW8       30.04R
TITUSVILLE     MOSUNNY   79  77  94 SE6       30.05R
CAPE CANAVERAL FAIR      77  64  64 W3        30.03R
PATRICK AFB    FAIR      77  74  91 NW7       30.04R
MELBOURNE      FAIR      75  71  87 CALM      30.04R
VERO BEACH     FAIR      73  70  90 CALM      30.03R
FT PIERCE      FAIR      70  68  93 W3        30.03R
STUART         MOSUNNY   75  72  88 CALM      30.03R

STATION/POSITION SKY/WX   TEMP    WIND        PRES    WAVE   SWELL
                          AIR SEA DIR/SP/G            HT/PER HT/PER
                          (F)     (DEG/KT/KT) (MB)    (FT/S) (FT/S)
28.5N   80.2W              79     130/  6/  6 1017.7
28.9N   78.5W              77     120/  8/  8 1018.4R   3/ 6   3/ 6
TRIDENT PIER               77 81  270/  5/  6 1018.5R
28.4N   80.5W                 79                N/A     2/ 4
27.5N   80.2W                 80                N/A     3/ 5

$$
FLZ050-056-061-142-242-148-248-149-249-151-251-155-255-
160-260-201300-
WEST CENTRAL FLORIDA

CITY           SKY/WX    TMP DP  RH WIND       PRES   REMARKS
CRYSTAL RIVER  FAIR      72  68  88 CALM      30.05S
INVERNESS      FAIR      72  72 100 CALM      30.06R
BROOKSVILLE    FAIR      73  70  90 E3        30.05R
CLEARWATER AIR FAIR      75  70  83 E3        30.03R
ST PETE CLEARW FAIR      76  70  82 E6        30.03R
TAMPA INTL     FAIR      77  69  76 NE3       30.04R
TAMPA EXEC     FAIR      72  72 100 CALM      30.05R
PLANT CITY     FAIR      75  75 100 E3        30.06R
MACDILL AFB    FAIR      76  69  79 E6        30.03R
PETER O KNIGHT CLOUDY    77  73  88 E5        30.04R
ST PETERSBURG  FAIR      77  69  76 E7        30.02R
SARASOTA       FAIR      74  68  81 E7        30.01R
VENICE         FAIR      75  70  83 E6        30.03R

STATION/POSITION SKY/WX   TEMP    WIND        PRES    WAVE   SWELL
                          AIR SEA DIR/SP/G            HT/PER HT/PER
                          (F)     (DEG/KT/KT) (MB)    (FT/S) (FT/S)
27.3N   84.2W                 78                N/A     1/ 5
CLEARWATER BEACH           76 84   70/  5/  6 1016.9R
MIDDLE TAMPA BAY           74     110/  6/  9 1016.9R
VENICE                     74 82   70/  6/  7 1016.4R

$$
FLZ066-069-070-075>078-162-262-165-265-201300-
SOUTHWEST FLORIDA AND KEYS

CITY           SKY/WX    TMP DP  RH WIND       PRES   REMARKS
PUNTA GORDA    FAIR      73  69  87 E3        30.04R
FT MYERS       FAIR      76  69  79 CALM      30.02R
SOUTHWEST INTL FAIR      76  67  73 NE3       30.02R
NAPLES         FAIR      76  70  82 E5        30.01R
MARCO ISLAND   FAIR      74  69  85 NE5       30.02R
IMMOKALEE      FAIR      73  68  83 CALM      30.00R
MARATHON       FAIR      84  70  62 NE5       29.99R
KEY WEST NAS   FAIR      83  71  67 E6        29.99R
KEY WEST INTL  FAIR      81  72  74 E5        29.99R

STATION/POSITION SKY/WX   TEMP    WIND        PRES    WAVE   SWELL
                          AIR SEA DIR/SP/G            HT/PER HT/PER
                          (F)     (DEG/KT/KT) (MB)    (FT/S) (FT/S)
NAPLES                     77 83              1016.3R
DRY TORTUGAS               81     100/  6/  7 1015.8R
SAND KEY                   81                 1015.4R
SOMBRERO KEY               81                 1014.9R

$$
FLZ067-068-071>074-168-172>174-201300-
SOUTHEAST FLORIDA

CITY           SKY/WX    TMP DP  RH WIND       PRES   REMARKS
W PALM BEACH   FAIR      79  72  79 N3        30.02R
BOCA RATON     MOSUNNY   77  72  83 CALM      30.01R
FT LAUDER-EXEC FAIR      78  71  79 CALM      30.01R
FT LAUDERDALE  LGT RAIN  75  71  87 N7        30.00R
POMPANO BEACH  FAIR      79  70  74 NW5       30.01R
PEMBROKE PINES FAIR      76  71  85 N5        30.02R
MIAMI          FAIR      81  71  71 CALM      30.01R
WEST KENDALL   FAIR      79  73  82 CALM      30.00R
HOMESTEAD      FAIR      77  71  83 N3        29.99S

STATION/POSITION SKY/WX   TEMP    WIND        PRES    WAVE   SWELL
                          AIR SEA DIR/SP/G            HT/PER HT/PER
                          (F)     (DEG/KT/KT) (MB)    (FT/S) (FT/S)
PORT EVERGLADES            76     300/  9/ 12 1015.9R
VIRGINIA KEY               81 84  130/  2/  3 1015.4R
LAKE WORTH                 78 81              1017.4R
SETTLEMENT POINT           78     110/  7/  9 1016.8R

$$





USA.gov is the U.S. government's official web portal to all federal, state and local government web resources and services.